Regional Weather Roundup
Issued by NWS Jackson, KY

Home | Current Version | Previous Version | Text Only | Print | Product List | Glossary On
Versions: 1 2 3 4 5 6 7 8 9 10 11 12 13 14 15 16 17 18 19 20 21 22 23 24 25 26 27 28 29 30 31 32 33 34 35 36 37 38 39 40 41 42 43 44 45 46 47 48 49 50
000
ASUS43 KJKL 311819
RWRJKL

EAST KENTUCKY HOURLY WEATHER ROUNDUP
NATIONAL WEATHER SERVICE JACKSON KY
100 PM EST SAT JAN 31 2015

NOTE: "FAIR" INDICATES FEW OR NO CLOUDS BELOW 12,000 FEET WITH
NO SIGNIFICANT WEATHER AND/OR OBSTRUCTIONS TO VISIBILITY.

* THESE REPORTS ARE NOT UNDER NWS QUALITY CONTROL AND MAY NOT
  REPORT WEATHER SUCH AS PRECIPITATION AND FOG.

KYZ079-080-083-085-087-088-110-112-115-119-120-311900
...EASTERN KENTUCKY...

CITY           SKY/WX    TMP DP  RH WIND       PRES   REMARKS
JACKSON        SUNNY     36  16  44 VRB3      30.33F
6HR MIN TEMP:  18; 6HR MAX TEMP:  36;

LONDON         PTSUNNY   39  11  31 S3        30.35F
6HR MIN TEMP:  19; 6HR MAX TEMP:  40;

SOMERSET*      CLOUDY    36  19  51 SW3       30.38F
MONTICELLO*    PTSUNNY   42  14  32 CALM      30.38F
6HR MIN TEMP:  17; 6HR MAX TEMP:  42;

MIDDLESBORO*   PTSUNNY   37  17  44 CALM      30.37F
6HR MIN TEMP:  18; 6HR MAX TEMP:  38;

HARLAN APT*    CLEAR     39  10  30 S7        30.33F WCI  34
BLACK MTN*       N/A     34  -2  21 N3          N/A
PIKEVILLE APT* SUNNY     34  16  47 S5        30.33F WCI  30
BIG SANDY*     CLEAR     36  18  49 S3        30.34F
6HR MIN TEMP:  17; 6HR MAX TEMP:  36;

MOREHEAD APT*  CLEAR     36  19  51 SW6       30.36F WCI  31
ASHLAND*       SUNNY     36  18  48 W3        30.34F
$$

KYZ035-036-041-042-044-050-067-078-099-311900
...CENTRAL KENTUCKY...

CITY           SKY/WX    TMP DP  RH WIND       PRES   REMARKS
MT STERLING*   MOSUNNY   36  21  55 SW5       30.36F WCI  32
FLEMING/MASON* SUNNY     36  21  54 SW8       30.35F WCI  29
DANVILLE*      PTSUNNY   37  21  52 SW7       30.36F WCI  32
RICHMOND*      PTSUNNY   39  18  41 SW6       30.35F WCI  35
LEXINGTON      PTSUNNY   37  20  50 SW5       30.36F WCI  33
6HR MIN TEMP:  19; 6HR MAX TEMP:  37;

FRANKFORT      PTSUNNY   38  18  44 S6        30.35F WCI  33
6HR MIN TEMP:  15; 6HR MAX TEMP:  38;

$$

KYZ091>093-OHZ055-061-077-WVZ005-015-034-035-042-311900
...SOUTHERN OHIO/WEST VIRGINIA...

CITY           SKY/WX    TMP DP  RH WIND       PRES   REMARKS
COVINGTON      CLOUDY    36  19  50 SW9       30.32F WCI  29
COLUMBUS       MOSUNNY   29  18  63 S10       30.31F WCI  20
DAYTON         MOSUNNY   35  23  61 SW12      30.30F WCI  27
WILMINGTON     SUNNY     33  20  58 SW13      30.30F WCI  24
HUNTINGTON     SUNNY     34  18  52 CALM      30.35F
CHARLESTON     MOSUNNY   32  15  49 VRB3      30.35F
PINEVILLE*     SUNNY     35  17  48 MISG      30.36F
BECKLEY        SUNNY     29   9  43 W8        30.26F WCI  21
BLUEFIELD      SUNNY     32   7  35 W12       30.25F WCI  23
$$

VAZ002-007-008-TNZ017-027-036-066-071-311900
...SOUTHWEST VIRGINIA/EAST TENNESSEE...

CITY           SKY/WX    TMP DP  RH WIND       PRES   REMARKS
WISE*          SUNNY     37   9  30 CALM      30.28F
JONESVILLE*    CLEAR     37   9  30 CALM      30.37F
ABINGDON*      SUNNY     38  11  32 W5        30.32F WCI  35
BRISTOL        PTSUNNY   38  10  31 CALM      30.35F
KNOXVILLE      PTSUNNY   41  20  43 VRB3      30.36F
OAK RIDGE      MOSUNNY   41  16  36 CALM      30.37F
CROSSVILLE     PTSUNNY   43  10  26 VRB3      30.32F
NASHVILLE      CLOUDY    43  23  45 E5        30.37F
$$

...KEY TO REMARKS...
VSB - VISIBILITY IN MILES
WCI - WIND CHILL INDEX
HX  - HEAT INDEX

$$


USA.gov is the U.S. government's official web portal to all federal, state and local government web resources and services.